This demonstration page uses our WeatherBlox Daily Observations layout. Learn more.

Left ArrowRight Arrow

Hourly Observations for May 19, 2019

Temp ( °F °C ) Dew Point ( °F °C ) Humidity (%) Winds ( mph kmh ) Pressure ( in mb ) Visibility ( mi km ) Precip ( " mm )
12:52 am 00:52 Mostly Cloudy 60 15.6 55 12.8 84 84 NW 12 19 29.59 1002 10 16 0.00 0.00
1:12 am 01:12 Cloudy 60 15.6 55 12.8 84 84 NW 10 17 29.60 1002 10 16 0.00 0.00
1:44 am 01:44 Cloudy 59 15 55 12.8 87 87 NW 12 19 29.59 1002 10 16 0.00 0.00
1:52 am 01:52 Cloudy 59 15 54 12.2 83 83 NW 12 19 29.58 1002 10 16 0.00 0.00
2:52 am 02:52 Mostly Cloudy 59 15 53 11.7 81 81 NW 9 15 29.59 1002 10 16 0.00 0.00
3:19 am 03:19 Cloudy 58 14.4 53 11.7 84 84 WNW 12 19 29.60 1003 10 16 0.00 0.00
3:52 am 03:52 Cloudy 58 14.4 53 11.7 84 84 NW 9 15 29.60 1003 10 16 0.00 0.00
4:52 am 04:52 Cloudy 58 14.4 52 11.1 81 81 WNW 12 19 29.62 1003 10 16 0.00 0.00
5:52 am 05:52 Cloudy 57 13.9 52 11.1 83 83 WNW 12 19 29.63 1004 10 16 0.00 0.00
6:52 am 06:52 Cloudy 56 13.3 50 10 81 81 NW 15 24 29.65 1004 10 16 0.00 0.00
7:52 am 07:52 Cloudy 55 12.8 49 9.4 80 80 NW 20 31 29.68 1005 10 16 0.00 0.00
8:52 am 08:52 Cloudy 55 12.8 48 8.9 77 77 NW 17 28 29.71 1006 10 16 0.00 0.00
9:52 am 09:52 Cloudy 55 12.8 48 8.9 77 77 NW 15 24 29.73 1007 10 16 0.00 0.03
10:52 am 10:52 Cloudy 57 13.9 47 8.3 69 69 NW 18 30 29.74 1007 10 16 0.00 0.00
11:19 am 11:19 Cloudy 56 13.3 46 7.8 70 70 NW 17 28 29.77 1008 10 16 0.00 0.00
11:52 am 11:52 Cloudy 56 13.3 46 7.8 70 70 NW 17 28 29.78 1009 10 16 0.00 0.00
12:42 pm 12:42 Cloudy 58 14.4 45 7.2 62 62 NW 18 30 29.81 1010 10 16 0.00 0.00
12:52 pm 12:52 Cloudy 59 15 46 7.8 62 62 NW 20 31 29.81 1009 10 16 0.00 0.00
1:52 pm 13:52 Cloudy 58 14.4 44 6.7 60 60 NW 21 33 29.82 1010 10 16 0.00 0.00
2:52 pm 14:52 Cloudy 57 13.9 43 6.1 60 60 WNW 18 30 29.85 1011 10 16 0.00 0.00
3:52 pm 15:52 Cloudy 57 13.9 43 6.1 60 60 NW 20 31 29.87 1012 10 16 0.00 0.00
4:52 pm 16:52 Cloudy 57 13.9 42 5.6 58 58 NW 17 28 29.89 1012 10 16 0.00 0.00
5:52 pm 17:52 Cloudy 56 13.3 42 5.6 60 60 NW 17 28 29.91 1013 10 16 0.00 0.00
6:52 pm 18:52 Cloudy 56 13.3 41 5 57 57 WNW 16 26 29.92 1013 10 16 0.00 0.00
7:52 pm 19:52 Cloudy 55 12.8 41 5 59 59 WNW 12 19 29.95 1014 10 16 0.00 0.00
8:52 pm 20:52 Cloudy 54 12.2 41 5 62 62 NW 10 17 29.96 1015 10 16 0.00 0.00
9:52 pm 21:52 Cloudy 53 11.7 44 6.7 72 72 NW 12 19 30.01 1016 10 16 0.00 0.00
10:52 pm 22:52 Cloudy 52 11.1 44 6.7 75 75 NW 10 17 30.04 1017 10 16 0.00 0.00
11:41 pm 23:41 Cloudy 51 10.6 44 6.7 77 77 N 15 24 30.06 1018 10 16 0.00 0.00
11:52 pm 23:52 Cloudy with Drizzle 50 10 44 6.7 80 80 N 16 26 30.05 1018 10 16 0.00 0.03

Powered by AerisWeather